STARLINK-36726

Last updated on Wed Mar 25 2026 00:02:05 GMT+0000 (Coordinated Universal Time)

1 67925U 26036X 26082.93806565 .00083909 00000+0 14202-2 0 9995 2 67925 43.0000 165.4573 0000823 346.0075 14.0762 15.50590481 5897
UTC large
Height (km)
Speed (km/s)
/
Latitude / Longitude
Inclination (degrees)
Orbital Period (minutes)
Azimuth
Elevation
Range (km)
Doppler Factor

Next 0 passes for location: London (51.5072 / 0.1276)

Sorry there are no passes over London.